CW8496 Weather Reports


time (UTC)temp
C
wind
direction
speed
KPH
gust
KPH
rain 1hr
cm
rain 24hr
cm
rain mn
cm
humidity
%
barometer
mb
20260831070018 15 0.0 0.0 0.00 0.00 0.00 58 1037.8
20260831063017 15 0.0 3.2 0.00 0.00 0.00 56 1037.8
20260831060057 15 0 1.6 11.3 0.00 0.00 0.00 52 1037.7
20260831053017 16 23 3.2 12.9 0.00 0.00 0.00 47 1038.1
20260831050017 17 0 3.2 14.5 0.00 0.00 0.00 50 1038.7
20260831043017 17 0 4.8 14.5 0.00 0.00 0.00 51 1038.7
20260831040017 17 338 3.2 12.9 0.00 0.00 0.00 51 1039.3
20260831033016 18 338 3.2 16.1 0.00 0.00 0.00 42 1039.3
20260831030057 17 338 4.8 16.1 0.00 0.00 0.00 49 1039.6
20260831023057 17 0 1.6 14.5 0.00 0.00 0.00 54 1040.2
20260831020056 17 0 3.2 9.7 0.00 0.00 0.00 51 1040.3
20260831013017 16 0 4.8 12.9 0.00 0.00 0.00 54 1040.9
20260831010036 16 0 4.8 12.9 0.00 0.00 0.00 55 1040.9
20260831003017 16 338 3.2 11.3 0.00 0.00 0.00 58 1041.1
20260831000016 15 0 3.2 14.5 0.00 0.00 0.00 57 1040.7
20260830233016 15 0 3.2 8.0 0.00 0.00 0.00 60 1040.6
20260830230016 15 0 1.6 6.4 0.00 0.00 0.00 62 1040.6
20260830223016 15 0.0 6.4 0.00 0.00 0.00 65 1040.6
20260830220018 12 0.0 0.0 0.00 0.00 0.00 72 1039.9
20260830213019 10 0.0 0.0 0.00 0.00 0.00 77 1039.0
20260830210018 7 0.0 0.0 0.00 0.00 0.00 81 1038.4
20260830203018 8 0.0 1.6 0.00 0.00 0.00 77 1038.3
20260830200018 7 0.0 6.4 0.00 0.00 0.00 81 1037.8
20260830193039 7 0.0 8.0 0.00 0.00 0.00 81 1038.1
20260830190017 7 0.0 3.2 0.00 0.00 0.00 80 1038.4
20260830183058 7 0.0 0.0 0.00 0.00 0.00 79 1038.4
20260830180018 7 0.0 0.0 0.00 0.00 0.00 79 1038.7
20260830173018 8 0.0 0.0 0.00 0.00 0.00 76 1039.1
20260830170017 8 158 3.2 8.0 0.00 0.00 0.00 73 1039.3
20260830163017 10 0.0 3.2 0.00 0.00 0.00 67 1039.8
20260830160017 10 158 3.2 8.0 0.00 0.00 0.00 64 1040.1
20260830153019 10 158 3.2 6.4 0.00 0.00 0.00 66 1040.3
20260830150017 9 0.0 6.4 0.00 0.00 0.00 70 1040.3
20260830143017 9 0.0 6.4 0.00 0.00 0.00 65 1040.3
20260830140017 9 0.0 4.8 0.00 0.00 0.00 61 1040.1
20260830133018 8 0.0 0.0 0.00 0.00 0.00 60 1040.2
20260830130018 8 0.0 0.0 0.00 0.00 0.00 60 1039.9
20260830123020 9 0.0 0.0 0.00 0.00 0.00 57 1040.2
20260830120018 9 0.0 0.0 0.00 0.00 0.00 58 1039.9
20260830113100 8 0.0 0.0 0.00 0.00 0.00 57 1039.7
20260830110018 9 0.0 0.0 0.00 0.00 0.00 55 1039.5
20260830103118 9 0.0 0.0 0.00 0.00 0.00 52 1038.9
20260830100018 10 0.0 0.0 0.00 0.00 0.00 50 1038.4
20260830090018 9 0.0 0.0 0.00 0.00 0.00 49 1037.2
20260830083017 10 0.0 0.0 0.00 0.00 0.00 54 1037.0
20260830080019 10 0.0 0.0 0.00 0.00 0.00 62 1037.0
20260830073018 12 0.0 1.6 0.00 0.00 0.00 55 1037.2